Regional Weather Roundup
Issued by NWS Upton, NY

Current Version | Previous Version | Graphics & Text | Print | Product List | Glossary Off
Versions: 1 2 3 4 5 6 7 8 9 10 11 12 13 14 15 16 17 18 19 20 21 22 23 24 25 26 27 28 29 30 31 32 33 34 35 36 37 38 39 40 41 42 43 44 45 46 47 48 49 50

856
ASUS41 KOKX 241508
RWROKX

REGIONAL WEATHER ROUNDUP
NATIONAL WEATHER SERVICE NEW YORK NY
1100 AM EDT SUN SEP 24 2017

NOTE: "FAIR" INDICATES FEW OR NO CLOUDS BELOW 12,000 FEET WITH NO
SIGNIFICANT WEATHER AND/OR OBSTRUCTIONS TO VISIBILITY.

NYZ071-072-176-178-NJZ106-104-241600-
NEW YORK CITY METRO AREA

CITY           SKY/WX    TMP DP  RH WIND       PRES   REMARKS
Central Park   SUNNY     81  62  52 VRB3      30.10F
Bronx Bot Gard   N/A     82  63  51 W6        30.10R
LaGuardia APRT SUNNY     84  64  50 N5        30.07S
Kennedy INTL   SUNNY     86  63  45 N9        30.08S
Breezy Point     N/A     81 N/A N/A NE6         N/A
Newark/Liberty SUNNY     83  63  50 N10       30.07F
Teterboro      SUNNY     84  64  50 MISG      30.07S
$$

NYZ177-179-078>081-241600-
LONG ISLAND NEW YORK

CITY           SKY/WX    TMP DP  RH WIND       PRES   REMARKS
Jones Beach      N/A     79 N/A N/A NE3         N/A
Matinecock PT    N/A     75 N/A N/A SW2         N/A
Farmingdale    SUNNY     83  64  52 NE7       30.07S
MacArthur/ISP  SUNNY     83  63  50 NE9       30.06S
Shirley        SUNNY     83  65  54 E5        30.07S
Mt Sinai Harb    N/A    N/A N/A N/A NW3         N/A
Westhampton    SUNNY     80  60  50 E6        30.07F
East Hampton   FAIR      78  63  59 NE6       30.05F
Montauk          N/A     76  63  64 N6        30.07S
$$

NYZ052-065-067-241600-
HUDSON VALLEY

CITY           SKY/WX    TMP DP  RH WIND       PRES   REMARKS
White Plains   SUNNY     84  63  49 N7        30.09S
Larchmont Harb   N/A     73 N/A N/A S1          N/A
Croton On Huds   N/A     77 N/A N/A W5          N/A
Newburgh       SUNNY     77  66  69 CALM      30.12F
Montgomery     SUNNY     78  64  61 CALM      30.11S
Poughkeepsie   SUNNY     77  63  61 CALM      30.09F
Albany         SUNNY     78  63  59 NE3       30.11F
$$

NJZ001-105-106-008-010-013-015-019>022-104-241600-
NEW JERSEY

CITY           SKY/WX    TMP DP  RH WIND       PRES   REMARKS
Newark/Liberty SUNNY     83  63  50 N10       30.07F
Teterboro      SUNNY     84  64  50 MISG      30.07S
Caldwell       SUNNY     82  67  60 VRB3      30.09F
Somerville     NOT AVBL
Linden         FAIR      84  60  44 N6        30.08S
Perth Amboy      N/A     81 N/A N/A NE10        N/A
Sussex         SUNNY     79  66  64 CALM      30.11F
Andover          N/A     79  65  62 N3        30.12F
Trenton        SUNNY     83  65  54 NE7       30.08F
Millville      SUNNY     84  66  54 NE9       30.08S
Atlantic City  SUNNY     82  65  56 NE8       30.07F
Wrightstown    SUNNY     81  65  57 NE6       30.05F
Toms River     SUNNY     82  64  54 NE6       30.08F
Belmar         SUNNY     82  63  52 NE8       30.09S
$$

PAZ047>061-062-071-241600-
EASTERN PENNSYLVANIA

CITY           SKY/WX    TMP DP  RH WIND       PRES   REMARKS
Philadelphia   SUNNY     84  63  49 N3        30.09S
Allentown      SUNNY     83  67  58 CALM      30.10F
Scranton       SUNNY     77  63  61 CALM      30.16S
$$

CTZ002-004>006-009-010-012-RIZ004-006-007-MAZ004-011-015-241600-
SOUTHERN NEW ENGLAND
 IN CT

CITY           SKY/WX    TMP DP  RH WIND       PRES   REMARKS
Bradley INTL   SUNNY     80  64  58 NE5       30.08F
Hartford       SUNNY     78  63  59 E3        30.07F
Danbury        SUNNY     83  66  56 CALM      30.10F
Wtrbury/Oxford SUNNY     81  65  58 VRB6      30.11S
Norwalk Harbor   N/A     73 N/A N/A S6          N/A
Bridgeport     SUNNY     76  63  64 SW7       30.07S
Meriden        SUNNY     81  62  52 NE3       30.07F
New Haven      SUNNY     81  62  52 NW7       30.07S
Chester        FAIR      84  64  51 N5        30.07F
Groton         SUNNY     80  66  62 S6        30.04F
Wilimantic     SUNNY     84  66  54 CALM      30.06F

 IN RI

CITY           SKY/WX    TMP DP  RH WIND       PRES   REMARKS
Providence     SUNNY     80  64  58 VRB3      30.06F
Block Island   SUNNY     74  60  61 NE6       30.07S
Westerly       SUNNY     83  64  52 NE5       30.06S
 IN MA

CITY           SKY/WX    TMP DP  RH WIND       PRES   REMARKS
Boston         SUNNY     76  63  64 E5        30.06S
Worcester      SUNNY     79  62  56 E5        30.10F
Westfield      SUNNY     81  64  56 CALM      30.08S
Provincetown   SUNNY     70  65  84 NE3       30.07S
Nantucket      PTSUNNY   70  69  97 NE14      30.04F
$$

ANZ330-335-338-340-345-350-353-355-241600-
COASTAL MARINE OBSERVATIONS


STATION/POSITION TIME  SKY/WX   TEMP    WIND        PRES    VSBY  WAVE
                                AIR SEA DIR/SP/G                  HT/PER
                 (UTC)          (F)     (DEG/KT/KT) (MB)    (MI)  (FT/S)
NY HARB ENTRANCE 1350            71 71  330/  4/  4 1017.7          3/12
20 S FIRE ISLAND 1350            68 67  360/  6/  8 1018.2          4/14
GREAT SOUTH BAY  1430            76 71  130/  2/  2   N/A
23 SSW MONTAUK P 1350            65 63              1018.3          4/14
15 E BARNEGAT LI 1430               70                N/A           4/12
HUDSON CANYON    1350            68 68  360/ 10/ 12 1017.1          6/14
KINGS POINT      1430            73 72   10/  2/  2 1019.3
EXECUTION ROCKS  1445            77     140/  2/  2   N/A
WESTERN LI SOUND NOT AVBL
CENTRAL LI SOUND 1415            72     160/  4/  4   N/A           0
EASTERN LI SOUND NOT AVBL
ROBBINS REEF     1430            77     350/  5/  6 1019.2
$$


>>>>>>>>>>>>>>>>>>>>>>>>>>>> KEY <<<<<<<<<<<<<<<<<<<<<<<<<<<
>                                                          <
>     SKY/WX - Sky Condition/Present Weather               <
>     TMP    - Temperature in Fahrenheit                   <
>     DP     - Dew Point in Fahrenheit                     <
>     RH     - Relative Humidity in Percent                <
>     WIND   - Direction (from) and Speed in MPH           <
>     PRES   - Mean Sea Level Pressure (inches of Hg)      <
>     WCI    - Wind Chill Index                            <
>     VSB    - VISIBILITY IN MILES                         <
>     HX     - HEAT INDEX                                  <
>     TC     - TEMPERATURE IN CELSIUS                      <
>     VRB    - VARIABLE WIND DIRECTION                     <
>                                                          <
>>>>>>>>>>>>>>>>>>>>>>>>>>>> KEY <<<<<<<<<<<<<<<<<<<<<<<<<<<




USA.gov is the U.S. government's official web portal to all federal, state and local government web resources and services.